Location: Hoyos del Collado
(40.3594°N, 5.2003°W)
Time: 02:26:27
(UTC+00:00)

Cosmos 1536 Rocket - Pass Details

Date: 18 April 2024
Orbit: 603 x 628 km, 82.5° (Epoch: 25 May)

Event Time Altitude Azimuth Distance (km) Brightness Sun altitude
Rises 21:15:12 0° 345° (NNW) 2,904 7.9 -23.0°
Reaches altitude 10° 21:17:29 10° 339° (NNW) 1,997 7.0 -23.4°
Maximum altitude 21:21:42 45° 268° (W) 857 4.5 -24.0°
Enters shadow 21:23:13 32° 219° (SW) 1,075 4.7 -24.2°
